Regional Weather Roundup
Issued by NWS

Home | Current Version | Previous Version | Graphics & Text | Print | Product List | Glossary On
Versions: 1 2 3 4 5 6 7 8 9 10 11 12 13 14 15 16 17 18 19 20 21 22 23 24 25 26 27 28 29 30 31 32 33 34 35 36 37 38 39 40 41 42 43 44 45 46 47 48 49 50
315
ASUS43 KOAX 251402
RWRNE

WEATHER ROUNDUP FOR NEBRASKA
NATIONAL WEATHER SERVICE OMAHA NE
900 AM CDT SUN SEP 25 2016

NOTES: SATELLITE DATA IS BEING USED TO AUGMENT CLOUD COVER ABOVE
       12000 FEET.
       "FAIR" INDICATES FEW OR NO CLOUDS BELOW 12,000 FEET WITH NO
       SIGNIFICANT WEATHER AND/OR OBSTRUCTIONS TO VISIBILITY.

  * THESE STATIONS DO NOT REPORT WEATHER SUCH AS RAIN...SNOW OR FOG.

NEZ001>004-019>022-054>056-251500-
NEBRASKA PANHANDLE

CITY           SKY/WX    TMP DP  RH WIND       PRES   REMARKS
SCOTTSBLUFF    MOSUNNY   46  40  79 W7        30.40R
ALLIANCE       SUNNY     47  41  80 NW14      30.35R
CHADRON        MOSUNNY   50  41  71 W13       30.36R
KIMBALL        SUNNY     45  38  78 NW8       30.42S
SIDNEY         SUNNY     47  39  74 NW15      30.40R
$$

NEZ057>060-069>072-079>082-251500-
SOUTHWEST NEBRASKA

CITY           SKY/WX    TMP DP  RH WIND       PRES   REMARKS
NORTH PLATTE   SUNNY     55  43  63 NW16G22   30.30R
IMPERIAL       SUNNY     53  40  61 NW21      30.34R
LEXINGTON      SUNNY     54  44  67 NW14      30.25S
MCCOOK         SUNNY     56  43  61 NW20G25   30.29R
OGALLALA       SUNNY     54  43  66 NW15G23   30.36R
$$

NEZ005>010-023>029-035>040-094-251500-
NORTH CENTRAL NEBRASKA

CITY           SKY/WX    TMP DP  RH WIND       PRES   REMARKS
VALENTINE      SUNNY     55  41  59 W17G30    30.21R
AINSWORTH      MOSUNNY   55  45  69 W17G24    30.21S
BROKEN BOW     SUNNY     55  43  63 NW20G28   30.23R
O`NEILL        MOSUNNY   59  42  53 W24G35    30.16R
ORD            SUNNY     57  42  57 NW20G28   30.18R
THEDFORD       SUNNY     53  44  71 W17G25    30.28R
$$

NEZ041-046>049-061>064-073>077-083>087-251500-
SOUTH CENTRAL NEBRASKA

CITY           SKY/WX    TMP DP  RH WIND       PRES   REMARKS
GRAND ISLAND   SUNNY     56  45  66 NW13      30.20S
AURORA         SUNNY     55  46  72 NW12G17   30.19S
HASTINGS       SUNNY     55  44  66 NW13      30.22R
HEBRON         CLOUDY    55  48  79 NW5       30.19R
HOLDREGE       SUNNY     55  43  63 NW12G18   30.25R
KEARNEY *      SUNNY     55  41  58 NW9       30.23R
YORK           MOSUNNY   54  46  76 NW13      30.18R
$$

NEZ011>018-030>034-042>045-251500-
NORTHEAST NEBRASKA

CITY           SKY/WX    TMP DP  RH WIND       PRES   REMARKS
NORFOLK        SUNNY     58  45  62 W15       30.12R
ALBION         SUNNY     57  45  62 NW13G22   30.16S
BLAIR          CLOUDY    57  50  79 W5        30.10F
FREMONT        PTSUNNY   55  48  77 W12       30.12S
TEKAMAH        CLOUDY    58  50  75 NW3       30.10R
WAYNE          SUNNY     58  48  69 W14G22    30.10S
$$

NEZ050>053-065>068-078-088>093-251500-
SOUTHEAST NEBRASKA

CITY           SKY/WX    TMP DP  RH WIND       PRES   REMARKS
LINCOLN        CLOUDY    58  47  66 NW6       30.16R
OMAHA EPPLEY   CLOUDY    59  50  72 NW7       30.11R
BEATRICE       CLOUDY    57  51  79 NW6       30.16R
FALLS CITY     CLOUDY    61  54  77 NW13      30.12R
NEBRASKA CITY  CLOUDY    59  46  62 NW10      30.14R
PLATTSMOUTH    PTSUNNY   58  49  70 NW7       30.11R
$$

NEZ044-045-051>053-067-251500-
OMAHA AREA

CITY           SKY/WX    TMP DP  RH WIND       PRES   REMARKS
OMAHA EPPLEY   CLOUDY    59  50  72 NW7       30.11R
BLAIR          CLOUDY    57  50  79 W5        30.10F
FREMONT        PTSUNNY   55  48  77 W12       30.12S
MILLARD        CLOUDY    59  49  68 NW7       30.11S
OFFUTT AFB     CLOUDY    59  50  73 NW10      30.10S
PLATTSMOUTH    PTSUNNY   58  49  70 NW7       30.11R
WAHOO          FAIR      56  48  73 NW8       30.12S
$$




USA.gov is the U.S. government's official web portal to all federal, state and local government web resources and services.